• In Czech Republic
  • List of Countries
  • For 7 days
  • Water Temperature
  • Satellite Maps
  • Weather Map
  • Weather Widgets
  • user-avatar
    Login

    Hourly Weather Oran

    Today, 22 August, Tuesday

    Time Temperature Precipitation Wind Pressure Humidity
    00:00 +29°C° 0 mm 3 mps 752 mmHg 60%
    01:00 +29°C° 0 mm 3 mps 752 mmHg 63%
    02:00 +28°C° 0 mm 3 mps 752 mmHg 65%
    03:00 +28°C° 0 mm 3 mps 752 mmHg 68%
    04:00 +27°C° 0 mm 2 mps 752 mmHg 69%
    05:00 +27°C° 0 mm 2 mps 753 mmHg 70%
    06:00 +27°C° 0 mm 2 mps 753 mmHg 72%
    07:00 +28°C° 0 mm 2 mps 753 mmHg 65%
    08:00 +29°C° 0 mm 2 mps 753 mmHg 58%
    09:00 +30°C° 0 mm 2 mps 753 mmHg 50%
    10:00 +33°C° 0 mm 3 mps 753 mmHg 45%
    11:00 +34°C° 0 mm 3 mps 753 mmHg 39%
    12:00 +36°C° 0 mm 4 mps 752 mmHg 34%
    13:00 +36°C° 0 mm 4 mps 752 mmHg 32%
    14:00 +37°C° 0 mm 5 mps 752 mmHg 31%
    15:00 +37°C° 0 mm 5 mps 751 mmHg 29%
    16:00 +36°C° 0 mm 5 mps 751 mmHg 31%
    17:00 +35°C° 0 mm 5 mps 751 mmHg 32%
    18:00 +34°C° 0 mm 5 mps 751 mmHg 33%
    19:00 +33°C° 0 mm 5 mps 751 mmHg 37%
    20:00 +32°C° 0 mm 4 mps 752 mmHg 40%
    21:00 +32°C° 0 mm 4 mps 752 mmHg 43%
    22:00 +30°C° 0 mm 3 mps 752 mmHg 46%
    23:00 +29°C° 0 mm 3 mps 751 mmHg 48%

    Tomorrow, 23 August, Wednesday

    Time Temperature Precipitation Wind Pressure Humidity
    00:00 +29°C° 0 mm 3 mps 751 mmHg 51%
    01:00 +28°C° 0 mm 3 mps 751 mmHg 54%
    02:00 +28°C° 0 mm 3 mps 751 mmHg 56%
    03:00 +27°C° 0 mm 3 mps 751 mmHg 59%
    04:00 +27°C° 0 mm 2 mps 751 mmHg 61%
    05:00 +27°C° 0 mm 2 mps 751 mmHg 62%
    06:00 +26°C° 0 mm 2 mps 751 mmHg 64%
    07:00 +28°C° 0 mm 2 mps 752 mmHg 55%
    08:00 +30°C° 0 mm 2 mps 752 mmHg 46%
    09:00 +32°C° 0 mm 2 mps 752 mmHg 36%
    10:00 +34°C° 0 mm 3 mps 752 mmHg 32%
    11:00 +36°C° 0 mm 3 mps 752 mmHg 28%
    12:00 +38°C° 0 mm 4 mps 752 mmHg 24%
    13:00 +38°C° 0 mm 4 mps 751 mmHg 25%
    14:00 +39°C° 0 mm 5 mps 751 mmHg 27%
    15:00 +39°C° 0 mm 5 mps 750 mmHg 28%
    16:00 +37°C° 0 mm 5 mps 750 mmHg 30%
    17:00 +36°C° 0 mm 5 mps 750 mmHg 33%
    18:00 +35°C° 0 mm 4 mps 750 mmHg 35%
    19:00 +34°C° 0 mm 4 mps 751 mmHg 38%
    20:00 +34°C° 0 mm 3 mps 751 mmHg 41%
    21:00 +33°C° 0 mm 3 mps 751 mmHg 44%
    22:00 +31°C° 0 mm 2 mps 751 mmHg 45%
    23:00 +31°C° 0 mm 2 mps 751 mmHg 47%

    Day after tomorrow, 24 August, Thursday

    Time Temperature Precipitation Wind Pressure Humidity
    00:00 +30°C° 0 mm 2 mps 751 mmHg 49%
    01:00 +30°C° 0 mm 2 mps 751 mmHg 52%
    02:00 +29°C° 0 mm 2 mps 750 mmHg 55%
    03:00 +28°C° 0 mm 2 mps 750 mmHg 58%
    04:00 +28°C° 0 mm 2 mps 750 mmHg 60%
    05:00 +28°C° 0 mm 2 mps 750 mmHg 61%
    06:00 +28°C° 0 mm 1 mps 750 mmHg 62%
    07:00 +29°C° 0 mm 1 mps 751 mmHg 55%
    08:00 +31°C° 0 mm 1 mps 751 mmHg 49%
    09:00 +32°C° 0 mm 1 mps 751 mmHg 42%
    10:00 +35°C° 0 mm 2 mps 751 mmHg 39%
    11:00 +36°C° 0 mm 2 mps 751 mmHg 36%
    12:00 +37°C° 0 mm 3 mps 751 mmHg 33%
    13:00 +37°C° 0 mm 3 mps 750 mmHg 33%
    14:00 +38°C° 0 mm 4 mps 750 mmHg 33%
    15:00 +38°C° 0 mm 4 mps 750 mmHg 33%
    16:00 +37°C° 0 mm 4 mps 749 mmHg 35%
    17:00 +36°C° 0 mm 4 mps 749 mmHg 36%
    18:00 +36°C° 0 mm 3 mps 749 mmHg 38%
    19:00 +35°C° 0 mm 3 mps 750 mmHg 41%
    20:00 +34°C° 0 mm 2 mps 750 mmHg 44%
    21:00 +32°C° 0 mm 1 mps 750 mmHg 47%
    22:00 +31°C° 0 mm 2 mps 750 mmHg 50%
    23:00 +31°C° 0 mm 2 mps 750 mmHg 54%

    25 August, Friday

    Time Temperature Precipitation Wind Pressure Humidity
    00:00 +30°C° 0 mm 3 mps 750 mmHg 58%
    01:00 +30°C° 0 mm 2 mps 750 mmHg 60%
    02:00 +29°C° 0 mm 2 mps 749 mmHg 62%
    03:00 +29°C° 0 mm 2 mps 749 mmHg 64%
    04:00 +29°C° 0 mm 2 mps 749 mmHg 62%
    05:00 +29°C° 0 mm 1 mps 749 mmHg 61%
    06:00 +30°C° 0 mm 1 mps 749 mmHg 59%
    07:00 +31°C° 0 mm 1 mps 750 mmHg 53%
    08:00 +32°C° 0 mm 1 mps 750 mmHg 48%
    09:00 +34°C° 0 mm 2 mps 750 mmHg 43%
    10:00 +36°C° 0 mm 2 mps 750 mmHg 38%
    11:00 +38°C° 0 mm 2 mps 750 mmHg 33%
    12:00 +39°C° 0 mm 3 mps 749 mmHg 28%
    13:00 +40°C° 0 mm 3 mps 749 mmHg 27%
    14:00 +41°C° 0 mm 4 mps 748 mmHg 27%
    15:00 +41°C° 0 mm 5 mps 748 mmHg 27%
    16:00 +40°C° 0 mm 4 mps 748 mmHg 29%
    17:00 +38°C° 0 mm 3 mps 748 mmHg 31%
    18:00 +37°C° 0 mm 3 mps 748 mmHg 33%
    19:00 +36°C° 0 mm 2 mps 748 mmHg 36%
    20:00 +35°C° 0 mm 2 mps 748 mmHg 38%
    21:00 +34°C° 0 mm 1 mps 749 mmHg 40%
    22:00 +33°C° 0 mm 1 mps 749 mmHg 44%
    23:00 +32°C° 0 mm 2 mps 748 mmHg 47%

    26 August, Saturday

    Time Temperature Precipitation Wind Pressure Humidity
    00:00 +31°C° 0 mm 2 mps 748 mmHg 51%
    01:00 +31°C° 0 mm 2 mps 748 mmHg 52%
    02:00 +30°C° 0 mm 1 mps 748 mmHg 54%
    03:00 +30°C° 0 mm 1 mps 748 mmHg 55%
    04:00 +30°C° 0 mm 1 mps 748 mmHg 57%
    05:00 +29°C° 0 mm 2 mps 748 mmHg 59%
    06:00 +29°C° 0 mm 2 mps 748 mmHg 61%
    07:00 +30°C° 0 mm 2 mps 748 mmHg 57%
    08:00 +31°C° 0 mm 2 mps 748 mmHg 53%
    09:00 +33°C° 0 mm 3 mps 749 mmHg 50%
    10:00 +34°C° 0 mm 3 mps 748 mmHg 47%
    11:00 +34°C° 0 mm 4 mps 748 mmHg 43%
    12:00 +35°C° 0 mm 5 mps 748 mmHg 40%
    13:00 +35°C° 0 mm 4 mps 748 mmHg 39%
    14:00 +35°C° 0 mm 4 mps 748 mmHg 38%
    15:00 +35°C° 0 mm 4 mps 748 mmHg 37%
    16:00 +34°C° 0 mm 4 mps 748 mmHg 38%
    17:00 +34°C° 0 mm 4 mps 748 mmHg 38%
    18:00 +33°C° 0 mm 3 mps 748 mmHg 38%
    19:00 +32°C° 0.1 mm 4 mps 748 mmHg 40%
    20:00 +30°C° 0.1 mm 4 mps 748 mmHg 41%
    21:00 +30°C° 0.1 mm 5 mps 749 mmHg 43%
    22:00 +30°C° 0.5 mm 5 mps 749 mmHg 44%
    23:00 +29°C° 0.5 mm 5 mps 749 mmHg 45%

    27 August, Sunday

    Time Temperature Precipitation Wind Pressure Humidity
    00:00 +29°C° 0.5 mm 6 mps 749 mmHg 46%
    01:00 +30°C° 0.3 mm 5 mps 749 mmHg 46%
    02:00 +30°C° 0.3 mm 4 mps 749 mmHg 45%
    03:00 +30°C° 0.3 mm 4 mps 749 mmHg 45%
    04:00 +29°C° 0 mm 4 mps 749 mmHg 49%
    05:00 +29°C° 0 mm 4 mps 749 mmHg 54%
    06:00 +28°C° 0 mm 4 mps 749 mmHg 58%
    07:00 +29°C° 0 mm 5 mps 749 mmHg 55%
    08:00 +30°C° 0 mm 5 mps 749 mmHg 52%
    09:00 +30°C° 0 mm 5 mps 750 mmHg 49%
    10:00 +32°C° 0 mm 5 mps 749 mmHg 48%
    11:00 +32°C° 0 mm 5 mps 749 mmHg 46%
    12:00 +33°C° 0 mm 5 mps 749 mmHg 44%
    13:00 +33°C° 0.1 mm 5 mps 749 mmHg 43%
    14:00 +33°C° 0.1 mm 5 mps 748 mmHg 43%
    15:00 +33°C° 0.1 mm 5 mps 748 mmHg 42%
    16:00 +33°C° 0 mm 5 mps 748 mmHg 43%
    17:00 +32°C° 0 mm 5 mps 748 mmHg 45%
    18:00 +30°C° 0 mm 5 mps 748 mmHg 46%
    19:00 +30°C° 0.1 mm 5 mps 748 mmHg 47%
    20:00 +29°C° 0.1 mm 5 mps 749 mmHg 47%
    21:00 +29°C° 0.1 mm 5 mps 749 mmHg 47%
    22:00 +28°C° 0.7 mm 5 mps 749 mmHg 48%
    23:00 +28°C° 0.7 mm 6 mps 749 mmHg 49%
    Show more